Regional Weather Roundup
Issued by NWS

Home | Current Version | Previous Version | Text Only | Print | Product List | Glossary On
Versions: 1 2 3 4 5 6 7 8 9 10 11 12 13 14 15 16 17 18 19 20 21 22 23 24 25 26 27 28 29 30 31 32 33 34 35 36 37 38 39 40 41 42 43 44 45 46 47 48 49 50
000
ASUS46 KSEW 300410
RWRWA

WASHINGTON REGIONAL WEATHER ROUNDUP
NATIONAL WEATHER SERVICE SEATTLE WA
800 PM PST THU JAN 29 2015

NOTE:"FAIR" INDICATES FEW OR NO CLOUDS BELOW 12,000 FEET WITH NO
SIGNIFICANT WEATHER AND/OR OBSTRUCTIONS TO VISIBILITY.

WAZ505-507>509-300500-
SEATTLE, TACOMA, EVERETT, AND VICINITY

CITY           SKY/WX    TMP DP  RH WIND       PRES   REMARKS
EVERETT        CLEAR     43  39  86 N6        30.31S
BOEING FIELD   CLEAR     48  38  68 CALM      30.31S
RENTON         CLEAR     46  39  76 NW9       30.30F
SEATAC AIRPORT CLEAR     44  37  76 N9        30.31S
JBLM-MCCHORD   CLEAR     39  39  99 CALM      30.30S
PUYALLUP       FAIR      39  39 100 CALM      30.29F
BREMERTON      CLEAR     43  37  81 N7        30.32S
JBLM-FT LEWIS  CLEAR     40  40  99 S2        30.29F
TACOMA NARROWS CLEAR     46  37  71 N5        30.31S
$$

WAZ001-503-506-510-514-515-300500-
NORTH INTERIOR

CITY           SKY/WX    TMP DP  RH WIND       PRES   REMARKS
BELLINGHAM     CLEAR     37  35  92 NW3       30.32S
FRIDAY HARBOR  CLEAR     37  35  92 CALM      30.33S
EASTSOUND      MOCLDY    39  39 100 CALM      30.32S FOG
PORT ANGELES   CLEAR     36  34  92 CALM      30.32R
NAS WHIDBEY    PTCLDY    40  37  89 N3        30.33S
ARLINGTON      CLEAR     36  30  80 CALM      30.32F
BURLINGTON     CLEAR     39 N/A N/A CALM      30.33S
$$

WAZ020-022-039-040-504-511-512-300500-
SOUTHWEST INTERIOR

CITY           SKY/WX    TMP DP  RH WIND       PRES   REMARKS
SHELTON        CLEAR     39  36  89 CALM      30.28S
OLYMPIA        CLEAR     38  36  92 CALM      30.30F
CHEHALIS       FAIR      41  41 100 CALM      30.29F
KELSO          CLEAR     41  36  81 CALM      30.33S
VANCOUVER      CLEAR     44  35  70 CALM      30.29R
SCAPPOOSE, OR  CLEAR     38  37  97 CALM      30.29S FOG
PORTLAND, OR   CLEAR     43  36  76 E7        30.29R
$$

WAZ021-516-517-300500-
WASHINGTON COAST

CITY           SKY/WX    TMP DP  RH WIND       PRES   REMARKS
FORKS          CLEAR     40  39  97 CALM      30.29R
HOQUIAM        CLEAR     48  42  80 N5        30.28R
ASTORIA, OR    CLEAR     48  43  82 SE6       30.24F
$$

WAZ019-023-024-040-518-519-300500-
CASCADE MOUNTAINS AND COLUMBIA GORGE

CITY           SKY/WX    TMP DP  RH WIND       PRES   REMARKS
TROUTDALE, OR  CLEAR     44  35  70 E23G35    30.28R
THE DALLES, OR CLOUDY    41  35  79 E5        30.45S
$$

WAZ026-027-041>044-520-521-300500-
EAST SLOPES

CITY           SKY/WX    TMP DP  RH WIND       PRES   REMARKS
OMAK           CLOUDY    35  30  82 N5        30.44S
WENATCHEE      CLOUDY    37  32  82 NW5       30.43S
ELLENSBURG     CLOUDY    37  33  85 CALM      30.39F
YAKIMA         CLOUDY    38  33  82 CALM      30.43F
$$

WAZ028-034-035-300500-
COLUMBIA BASIN

CITY           SKY/WX    TMP DP  RH WIND       PRES   REMARKS
EPHRATA        CLOUDY    37  35  92 CALM      30.41S
MOSES LAKE     CLOUDY    37  34  89 SW3       30.43S
PASCO          CLOUDY    39  38  96 CALM      30.46S
HERMISTON, OR  CLOUDY    38  35  89 E3        30.44S
$$

WAZ036>038-300500-
NORTHEAST WASHINGTON

CITY           SKY/WX    TMP DP  RH WIND       PRES   REMARKS
SPOKANE GEIGER PTCLDY    29  28  96 NW3       30.36S
SPOKANE FELTS  FOG       29  27  92 SW3       30.39R VSB 1
FAIRCHILD AFB  CLEAR     30  30 100 NW6       30.36S
COEURDALENE,ID CLOUDY    30  27  86 E3        30.36S VSB<1/4
DEER PARK      PTCLDY    25  24  96 CALM      30.38S FOG
$$

WAZ029>033-300500-
SOUTHEAST WASHINGTON

CITY           SKY/WX    TMP DP  RH WIND       PRES   REMARKS
PULLMAN        FOG       34  34 100 CALM      30.37F VSB 1/4
LEWISTON, ID   MOCLDY    36  34  92 SE5       30.39R
WALLA WALLA    CLOUDY    37  34  89 CALM      30.41F
PENDLETON, OR  CLOUDY    35  33  92 CALM      30.40S
$$



USA.gov is the U.S. government's official web portal to all federal, state and local government web resources and services.